Dublin, Ireland

5:55 PM GMT on February 24, 2017 (GMT +0000)
Dublin International

Weather History for EIDW - June, 2013

Change the Weather History Date:

Tuesday, June 4, 2013

  Actual Average Record
Temperature  
Mean Temperature 52 °F -  
Max Temperature 65 °F 63 °F 69 °F (2006)
Min Temperature 39 °F 50 °F 39 °F (2013)
Degree Days  
Heating Degree Days 13    
Growing Degree Days 2 (Base 50)    
Moisture  
Dew Point 45 °F    
Average Humidity 71    
Maximum Humidity 100    
Minimum Humidity 35    
Precipitation  
Precipitation 0.00 in 0.07 in - ()
Sea Level Pressure  
Sea Level Pressure 30.38 in    
Wind  
Wind Speed 5 mph ()    
Max Wind Speed 11 mph    
Max Gust Speed -    
Visibility 6.5 miles    
Events Fog    
Averages and records for this station are not official NWS values.
T = Trace of Precipitation, MM = Missing Value Source: Averaged Metar Reports

Daily Weather History Graph

Daily Weather History Graph

Search for Another Location

Airport or City:

Trip Planner

Search our weather history database for the weather conditions in past years. The results will help you decide how hot, cold, wet, or windy it might be!

Date:

Astronomy

Jun. 04, 2013 Rise Set
Actual Time 5:00 AM IST 9:46 PM IST
Civil Twilight 4:10 AM IST 10:37 PM IST
Nautical Twilight 2:47 AM IST 12:01 AM IST
Astronomical Twilight Sun does not rise Sun does not rise
Moon 2:56 AM IST (6/4) 5:34 PM IST (6/4)
Length of Visible Light 18h 27m
Length of Day
16h 46m
Waning Crescent, 16% of the Moon is Illuminated
Jun 4
Waning Crescent
Jun 8
New
Jun 16
First Quarter
Jun 23
Full
Jun 30
Last Quarter

Hourly Weather History & Observations

Time (IST) Temp. Windchill Dew Point Humidity Pressure Visibility Wind Dir Wind Speed Gust Speed Precip Events Conditions
12:00 AM 46.4 °F 45.2 °F 42.8 °F 87% 30.48 in - East 3.5 mph - N/A   Clear
12:30 AM 46.4 °F 44.3 °F 42.8 °F 87% 30.48 in - East 4.6 mph - N/A   Clear
1:00 AM 45 °F - 42 °F 86% 30.48 in 31 mi East 2.2 mph - -   Clear
1:00 AM 44.6 °F - 42.8 °F 93% 30.45 in - East 2.3 mph - N/A   Clear
1:30 AM 44.6 °F 42.2 °F 42.8 °F 93% 30.45 in - East 4.6 mph - N/A   Clear
2:00 AM 44.6 °F 42.2 °F 41.0 °F 87% 30.45 in - ESE 4.6 mph - N/A   Clear
2:30 AM 42.8 °F 41.1 °F 41.0 °F 93% 30.45 in - ESE 3.5 mph - N/A   Clear
3:00 AM 42.8 °F 41.1 °F 41.0 °F 93% 30.45 in - ESE 3.5 mph - N/A   Clear
3:30 AM 42.8 °F 41.1 °F 41.0 °F 93% 30.45 in - ESE 3.5 mph - N/A   Clear
4:00 AM 41.0 °F 39.0 °F 39.2 °F 93% 30.42 in - East 3.5 mph - N/A   Clear
4:30 AM 41.0 °F - 39.2 °F 93% 30.42 in 6.2 mi Calm Calm - N/A Fog Shallow Fog
5:00 AM 41.0 °F - 39.2 °F 93% 30.42 in 6.2 mi Variable 2.3 mph - N/A Fog Shallow Fog
5:30 AM 39.2 °F - 39.2 °F 100% 30.42 in 6.2 mi Calm Calm - N/A Fog Shallow Fog
6:00 AM 44.6 °F - 42.8 °F 93% 30.42 in 6.2 mi Variable 1.2 mph - N/A Fog Shallow Fog
6:30 AM 48.2 °F - 46.4 °F 93% 30.42 in - NE 4.6 mph - N/A   Clear
7:00 AM 51 °F - 49 °F 92% 30.44 in 16 mi NE 4.5 mph - -   Partly Cloudy
7:00 AM 51.8 °F - 50.0 °F 94% 30.42 in - NE 4.6 mph - N/A   Clear
7:30 AM 53.6 °F - 50.0 °F 88% 30.42 in - ENE 4.6 mph - N/A   Clear
8:00 AM 55.4 °F - 50.0 °F 82% 30.42 in - East 5.8 mph - N/A   Clear
8:30 AM 57.2 °F - 50.0 °F 77% 30.42 in - East 4.6 mph - N/A   Clear
9:00 AM 59.0 °F - 50.0 °F 72% 30.42 in - Variable 3.5 mph - N/A   Clear
9:30 AM 60.8 °F - 50.0 °F 68% 30.42 in 6.2 mi East 4.6 mph - N/A   Partly Cloudy
10:00 AM 60.8 °F - 50.0 °F 68% 30.39 in 6.2 mi East 5.8 mph - N/A   Partly Cloudy
10:30 AM 62.6 °F - 51.8 °F 68% 30.42 in 6.2 mi East 6.9 mph - N/A   Partly Cloudy
11:00 AM 62.6 °F - 51.8 °F 68% 30.39 in 6.2 mi East 6.9 mph - N/A   Partly Cloudy
11:30 AM 62.6 °F - 51.8 °F 68% 30.39 in 6.2 mi ESE 8.1 mph - N/A   Partly Cloudy
12:00 PM 64.4 °F - 50.0 °F 59% 30.39 in 6.2 mi East 8.1 mph - N/A   Partly Cloudy
12:30 PM 64.4 °F - 50.0 °F 59% 30.39 in 6.2 mi East 8.1 mph - N/A   Partly Cloudy
1:00 PM 64 °F - 51 °F 53% 30.39 in 25 mi ESE 11.2 mph - -   Scattered Clouds
1:00 PM 64.4 °F - 50.0 °F 59% 30.39 in 6.2 mi ESE 10.4 mph - N/A   Partly Cloudy
1:30 PM 64.4 °F - 50.0 °F 59% 30.39 in 6.2 mi East 9.2 mph - N/A   Partly Cloudy
2:00 PM 64.4 °F - 50.0 °F 59% 30.39 in 6.2 mi East 9.2 mph - N/A   Partly Cloudy
2:30 PM 64.4 °F - 48.2 °F 56% 30.36 in 6.2 mi ENE 10.4 mph - N/A   Partly Cloudy
3:00 PM 64.4 °F - 46.4 °F 52% 30.36 in 6.2 mi East 10.4 mph - N/A   Partly Cloudy
3:30 PM 64.4 °F - 48.2 °F 56% 30.36 in 6.2 mi East 9.2 mph - N/A   Partly Cloudy
4:00 PM 64.4 °F - 48.2 °F 56% 30.36 in 6.2 mi ENE 10.4 mph - N/A   Partly Cloudy
4:30 PM 64.4 °F - 46.4 °F 52% 30.36 in 6.2 mi East 9.2 mph - N/A   Partly Cloudy
5:00 PM 64.4 °F - 46.4 °F 52% 30.33 in 6.2 mi ENE 10.4 mph - N/A   Partly Cloudy
5:30 PM 62.6 °F - 42.8 °F 48% 30.33 in 6.2 mi East 9.2 mph - N/A   Partly Cloudy
6:00 PM 62.6 °F - 39.2 °F 42% 30.33 in 6.2 mi ENE 10.4 mph - N/A   Partly Cloudy
6:30 PM 60.8 °F - 39.2 °F 45% 30.33 in 6.2 mi ENE 9.2 mph - N/A   Partly Cloudy
7:00 PM 61 °F - 40 °F 35% 30.32 in 25 mi East 8.9 mph - -   Scattered Clouds
7:00 PM 60.8 °F - 37.4 °F 42% 30.30 in 6.2 mi East 9.2 mph - N/A   Partly Cloudy
7:30 PM 60.8 °F - 41.0 °F 48% 30.30 in 6.2 mi East 6.9 mph - N/A   Partly Cloudy
8:00 PM 59.0 °F - 42.8 °F 55% 30.30 in 6.2 mi ENE 6.9 mph - N/A   Partly Cloudy
8:30 PM 59.0 °F - 41.0 °F 51% 30.30 in 6.2 mi East 9.2 mph - N/A   Partly Cloudy
9:00 PM 55.4 °F - 42.8 °F 63% 30.30 in 6.2 mi ENE 6.9 mph - N/A   Partly Cloudy
9:30 PM 53.6 °F - 42.8 °F 67% 30.30 in 6.2 mi NE 5.8 mph - N/A   Partly Cloudy
10:00 PM 51.8 °F - 42.8 °F 71% 30.30 in - NE 4.6 mph - N/A   Clear
10:30 PM 51.8 °F - 42.8 °F 71% 30.30 in - North 1.2 mph - N/A   Clear
11:00 PM 51.8 °F - 42.8 °F 71% 30.27 in - Variable 2.3 mph - N/A   Clear
11:30 PM 44.6 °F - 39.2 °F 81% 30.27 in - Variable 2.3 mph - N/A   Clear